Location: Jabiru
(12.6667°S, 132.8333°E)
Time: 15:46:17
(UTC+09:30)

Hubble Space Telescope - Visible Passes

Search period start: 04 August 2020 00:00
Search period end: 14 August 2020 00:00
Orbit: 536 x 540 km, 28.5° (Epoch: 03 August)

Date Brightness Start Highest point End Pass type
(mag) Time Alt. Az. Time Alt. Az. Time Alt. Az.
04 Aug 2.2 18:45:31 10° W 18:49:08 29° SSW 18:52:45 10° SE visible
12 Aug 3.1 19:06:02 10° S 19:07:02 11° S 19:08:01 10° SSE visible
13 Aug 3.0 18:54:48 10° SSW 18:56:30 12° SSE 18:58:13 10° SE visible
13 Aug 3.5 20:34:27 10° SW 20:35:00 13° SW 20:35:00 13° SW visible
